When you browse on this site, cookies collect data to enhance your experience and personalize the content and advertising you see.
Visit our Privacy Policy to learn more. By continuing to use the site, you agree to this use of cookies and data.
  • In United Kingdom
  • List of Countries
  • For 7 days
  • Water Temperature
  • Satellite Maps
  • Weather Map
  • Weather Widgets
  • user-avatar
    Login

    Hourly Weather Mokhotlong

    Today, 20 July, Saturday

    Time Temperature Precipitation Wind Pressure Humidity
    00:00 +1°C° 0 mm 3 mps 580 mmHg 76%
    01:00 +1°C° 0 mm 3 mps 580 mmHg 78%
    02:00 +1°C° 0 mm 3 mps 580 mmHg 79%
    03:00 0°C° 0 mm 4 mps 579 mmHg 81%
    04:00 -1°C° 0 mm 4 mps 579 mmHg 83%
    05:00 -1°C° 0 mm 4 mps 579 mmHg 85%
    06:00 -1°C° 0 mm 4 mps 580 mmHg 80%
    07:00 0°C° 0 mm 4 mps 580 mmHg 75%
    08:00 0°C° 0 mm 4 mps 581 mmHg 70%
    09:00 +2°C° 0 mm 5 mps 582 mmHg 57%
    10:00 +5°C° 0 mm 5 mps 583 mmHg 45%
    11:00 +6°C° 0 mm 5 mps 584 mmHg 33%
    12:00 +7°C° 0 mm 5 mps 584 mmHg 27%
    13:00 +8°C° 0 mm 5 mps 584 mmHg 22%
    14:00 +9°C° 0 mm 6 mps 584 mmHg 16%
    15:00 +8°C° 0 mm 4 mps 584 mmHg 19%
    16:00 +7°C° 0 mm 3 mps 584 mmHg 21%
    17:00 +6°C° 0 mm 2 mps 584 mmHg 24%
    18:00 +4°C° 0 mm 2 mps 584 mmHg 36%
    19:00 +2°C° 0 mm 2 mps 584 mmHg 48%
    20:00 +1°C° 0 mm 2 mps 584 mmHg 61%
    21:00 -1°C° 0 mm 2 mps 584 mmHg 64%
    22:00 -2°C° 0 mm 2 mps 584 mmHg 68%
    23:00 -1°C° 0 mm 1 mps 585 mmHg 71%

    Tomorrow, 21 July, Sunday

    Time Temperature Precipitation Wind Pressure Humidity
    00:00 -2°C° 0 mm 1 mps 584 mmHg 70%
    01:00 -2°C° 0 mm 1 mps 584 mmHg 68%
    02:00 -3°C° 0 mm 1 mps 584 mmHg 67%
    03:00 -4°C° 0 mm 1 mps 584 mmHg 62%
    04:00 -4°C° 0 mm 1 mps 583 mmHg 58%
    05:00 -6°C° 0 mm 0 mps 583 mmHg 53%
    06:00 -4°C° 0 mm 0 mps 585 mmHg 44%
    07:00 -2°C° 0 mm 0 mps 586 mmHg 34%
    08:00 0°C° 0 mm 0 mps 587 mmHg 24%
    09:00 +2°C° 0 mm 0 mps 588 mmHg 20%
    10:00 +6°C° 0 mm 1 mps 588 mmHg 16%
    11:00 +8°C° 0 mm 1 mps 589 mmHg 12%
    12:00 +9°C° 0 mm 1 mps 589 mmHg 12%
    13:00 +10°C° 0 mm 2 mps 588 mmHg 11%
    14:00 +12°C° 0 mm 2 mps 588 mmHg 11%
    15:00 +10°C° 0 mm 2 mps 588 mmHg 15%
    16:00 +9°C° 0 mm 2 mps 587 mmHg 18%
    17:00 +7°C° 0 mm 2 mps 586 mmHg 22%
    18:00 +6°C° 0 mm 2 mps 586 mmHg 23%
    19:00 +4°C° 0 mm 2 mps 585 mmHg 25%
    20:00 +2°C° 0 mm 2 mps 584 mmHg 27%
    21:00 +2°C° 0 mm 2 mps 584 mmHg 28%
    22:00 +1°C° 0 mm 2 mps 584 mmHg 28%
    23:00 +1°C° 0 mm 2 mps 584 mmHg 29%

    Day after tomorrow, 22 July, Monday

    Time Temperature Precipitation Wind Pressure Humidity
    00:00 0°C° 0 mm 3 mps 583 mmHg 30%
    01:00 0°C° 0 mm 3 mps 583 mmHg 31%
    02:00 -1°C° 0 mm 3 mps 582 mmHg 32%
    03:00 -1°C° 0 mm 3 mps 582 mmHg 35%
    04:00 -1°C° 0 mm 3 mps 582 mmHg 38%
    05:00 -2°C° 0 mm 3 mps 581 mmHg 41%
    06:00 0°C° 0 mm 3 mps 582 mmHg 40%
    07:00 +1°C° 0 mm 3 mps 583 mmHg 38%
    08:00 +2°C° 0 mm 3 mps 584 mmHg 36%
    09:00 +6°C° 0 mm 2 mps 585 mmHg 30%
    10:00 +9°C° 0 mm 2 mps 585 mmHg 24%
    11:00 +13°C° 0 mm 2 mps 586 mmHg 17%
    12:00 +14°C° 0 mm 2 mps 586 mmHg 16%
    13:00 +15°C° 0 mm 2 mps 586 mmHg 15%
    14:00 +16°C° 0 mm 3 mps 586 mmHg 13%
    15:00 +14°C° 0 mm 2 mps 585 mmHg 16%
    16:00 +13°C° 0 mm 2 mps 584 mmHg 19%
    17:00 +10°C° 0 mm 2 mps 584 mmHg 21%
    18:00 +9°C° 0 mm 2 mps 583 mmHg 24%
    19:00 +7°C° 0 mm 2 mps 582 mmHg 26%
    20:00 +5°C° 0 mm 2 mps 582 mmHg 29%
    21:00 +5°C° 0 mm 2 mps 582 mmHg 32%
    22:00 +4°C° 0 mm 2 mps 582 mmHg 36%
    23:00 +3°C° 0 mm 2 mps 582 mmHg 39%

    23 July, Tuesday

    Time Temperature Precipitation Wind Pressure Humidity
    00:00 +3°C° 0 mm 2 mps 581 mmHg 41%
    01:00 +3°C° 0 mm 2 mps 581 mmHg 43%
    02:00 +2°C° 0 mm 2 mps 580 mmHg 45%
    03:00 +2°C° 0 mm 2 mps 580 mmHg 46%
    04:00 +2°C° 0 mm 2 mps 580 mmHg 47%
    05:00 +2°C° 0 mm 2 mps 580 mmHg 49%
    06:00 +3°C° 0 mm 2 mps 580 mmHg 43%
    07:00 +5°C° 0 mm 2 mps 581 mmHg 38%
    08:00 +6°C° 0 mm 2 mps 582 mmHg 32%
    09:00 +9°C° 0 mm 3 mps 583 mmHg 26%
    10:00 +12°C° 0 mm 4 mps 584 mmHg 20%
    11:00 +15°C° 0 mm 6 mps 585 mmHg 14%
    12:00 +15°C° 0 mm 7 mps 584 mmHg 15%
    13:00 +16°C° 0 mm 8 mps 583 mmHg 15%
    14:00 +16°C° 0 mm 9 mps 582 mmHg 15%
    15:00 +13°C° 0 mm 8 mps 582 mmHg 19%
    16:00 +12°C° 0 mm 8 mps 581 mmHg 23%
    17:00 +11°C° 0 mm 7 mps 580 mmHg 26%
    18:00 +10°C° 0 mm 7 mps 580 mmHg 29%
    19:00 +9°C° 0 mm 7 mps 580 mmHg 31%
    20:00 +7°C° 0 mm 8 mps 579 mmHg 34%
    21:00 +7°C° 0 mm 8 mps 579 mmHg 34%
    22:00 +7°C° 0 mm 9 mps 579 mmHg 34%
    23:00 +7°C° 0 mm 10 mps 579 mmHg 34%

    24 July, Wednesday

    Time Temperature Precipitation Wind Pressure Humidity
    00:00 +6°C° 0 mm 9 mps 579 mmHg 36%
    01:00 +6°C° 0 mm 9 mps 578 mmHg 38%
    02:00 +5°C° 0 mm 8 mps 578 mmHg 39%
    03:00 +5°C° 0 mm 8 mps 578 mmHg 42%
    04:00 +4°C° 0 mm 8 mps 578 mmHg 44%
    05:00 +3°C° 0 mm 7 mps 577 mmHg 46%
    06:00 +4°C° 0 mm 6 mps 578 mmHg 45%
    07:00 +5°C° 0 mm 5 mps 579 mmHg 44%
    08:00 +5°C° 0 mm 4 mps 580 mmHg 43%
    09:00 +6°C° 0 mm 7 mps 580 mmHg 36%
    10:00 +8°C° 0 mm 11 mps 581 mmHg 29%
    11:00 +9°C° 0 mm 14 mps 582 mmHg 22%
    12:00 +8°C° 0 mm 14 mps 582 mmHg 27%
    13:00 +7°C° 0 mm 13 mps 581 mmHg 32%
    14:00 +5°C° 0 mm 13 mps 581 mmHg 37%
    15:00 +3°C° 0.1 mm 11 mps 581 mmHg 46%
    16:00 0°C° 0.1 mm 10 mps 581 mmHg 54%
    17:00 -3°C° 0.1 mm 9 mps 581 mmHg 63%
    18:00 -3°C° 0.1 mm 7 mps 581 mmHg 68%
    19:00 -4°C° 0.1 mm 5 mps 582 mmHg 74%
    20:00 -4°C° 0.1 mm 3 mps 582 mmHg 79%
    21:00 -3°C° 0 mm 2 mps 582 mmHg 80%
    22:00 -4°C° 0 mm 2 mps 582 mmHg 82%
    23:00 -3°C° 0 mm 1 mps 582 mmHg 83%

    25 July, Thursday

    Time Temperature Precipitation Wind Pressure Humidity
    00:00 -3°C° 0 mm 1 mps 582 mmHg 76%
    01:00 -4°C° 0 mm 1 mps 582 mmHg 68%
    02:00 -4°C° 0 mm 1 mps 582 mmHg 60%
    03:00 -5°C° 0 mm 0 mps 582 mmHg 58%
    04:00 -6°C° 0 mm 0 mps 582 mmHg 57%
    05:00 -6°C° 0 mm 0 mps 582 mmHg 55%
    06:00 -4°C° 0 mm 0 mps 584 mmHg 46%
    07:00 -1°C° 0 mm 0 mps 585 mmHg 37%
    08:00 +2°C° 0 mm 1 mps 587 mmHg 28%
    09:00 +5°C° 0 mm 1 mps 588 mmHg 22%
    10:00 +8°C° 0 mm 1 mps 588 mmHg 17%
    11:00 +12°C° 0 mm 1 mps 589 mmHg 12%
    12:00 +13°C° 0 mm 1 mps 589 mmHg 11%
    13:00 +14°C° 0 mm 2 mps 589 mmHg 10%
    14:00 +16°C° 0 mm 2 mps 589 mmHg 9%
    15:00 +14°C° 0 mm 2 mps 588 mmHg 12%
    16:00 +12°C° 0 mm 1 mps 588 mmHg 16%
    17:00 +10°C° 0 mm 1 mps 587 mmHg 19%
    18:00 +8°C° 0 mm 1 mps 586 mmHg 23%
    19:00 +6°C° 0 mm 1 mps 586 mmHg 26%
    20:00 +5°C° 0 mm 1 mps 585 mmHg 29%
    21:00 +4°C° 0 mm 1 mps 585 mmHg 31%
    22:00 +4°C° 0 mm 1 mps 585 mmHg 32%
    23:00 +3°C° 0 mm 1 mps 585 mmHg 34%
    Show more